| time (UTC) | temp F | wind direction | speed knots | gust knots | rain 1hr in | rain 24hr in | rain mn in | humidity % | barometer mb |
| 20260510031041 | 56 | 182 | 4.3 | 9.6 | 0.00 | 0.33 | 0.33 | 82 | 1006.1 |
| 20260510030547 | 56 | 163 | 2.6 | 7.8 | 0.00 | 0.33 | 0.33 | 82 | 1006.1 |
| 20260510030029 | 55 | 190 | 3.5 | 7.8 | 0.00 | 0.33 | 0.33 | 83 | 1006.2 |
| 20260510025536 | 55 | 169 | 3.5 | 9.6 | 0.00 | 0.33 | 0.33 | 83 | 1006.3 |
| 20260510025028 | 55 | 178 | 2.6 | 9.6 | 0.00 | 0.33 | 0.33 | 83 | 1006.2 |
| 20260510024541 | 55 | 149 | 3.5 | 9.6 | 0.00 | 0.33 | 0.33 | 83 | 1006.2 |
| 20260510024045 | 55 | 157 | 3.5 | 10.4 | 0.00 | 0.33 | 0.33 | 83 | 1006.3 |
| 20260510023548 | 55 | 197 | 5.2 | 9.6 | 0.00 | 0.33 | 0.33 | 83 | 1006.2 |
| 20260510023056 | 55 | 182 | 3.5 | 9.6 | 0.00 | 0.33 | 0.33 | 83 | 1006.3 |
| 20260510022504 | 55 | 232 | 4.3 | 10.4 | 0.00 | 0.33 | 0.33 | 82 | 1006.2 |
| 20260510022001 | 55 | 190 | 4.3 | 10.4 | 0.00 | 0.33 | 0.33 | 82 | 1006.2 |
| 20260510021553 | 55 | 180 | 3.5 | 8.7 | 0.00 | 0.33 | 0.33 | 82 | 1006.1 |
| 20260510021006 | 55 | 223 | 3.5 | 13.9 | 0.00 | 0.33 | 0.33 | 82 | 1006.0 |
| 20260510020515 | 55 | 168 | 4.3 | 10.4 | 0.00 | 0.33 | 0.33 | 83 | 1006.0 |
| 20260510020023 | 55 | 186 | 3.5 | 9.6 | 0.00 | 0.33 | 0.33 | 83 | 1005.9 |
| 20260510015532 | 55 | 182 | 5.2 | 9.6 | 0.00 | 0.33 | 0.33 | 83 | 1005.9 |
| 20260510015040 | 55 | 154 | 3.5 | 9.6 | 0.00 | 0.33 | 0.33 | 83 | 1005.9 |
| 20260510014533 | 55 | 194 | 2.6 | 12.2 | 0.00 | 0.33 | 0.33 | 84 | 1005.8 |
| 20260510014016 | 55 | 149 | 3.5 | 12.2 | 0.00 | 0.33 | 0.33 | 84 | 1005.7 |
| 20260510013505 | 55 | 194 | 3.5 | 9.6 | 0.00 | 0.33 | 0.33 | 84 | 1005.7 |
| 20260510013022 | 54 | 183 | 4.3 | 10.4 | 0.00 | 0.33 | 0.33 | 85 | 1005.6 |
| 20260510012527 | 54 | 198 | 3.5 | 9.6 | 0.00 | 0.33 | 0.33 | 85 | 1005.6 |
| 20260510012031 | 54 | 130 | 3.5 | 10.4 | 0.00 | 0.33 | 0.33 | 86 | 1005.4 |
| 20260510011536 | 54 | 185 | 4.3 | 13.9 | 0.00 | 0.33 | 0.33 | 86 | 1005.4 |
| 20260510011021 | 54 | 165 | 3.5 | 10.4 | 0.00 | 0.33 | 0.33 | 87 | 1005.5 |
| 20260510010505 | 54 | 219 | 5.2 | 10.4 | 0.01 | 0.33 | 0.33 | 87 | 1005.4 |
| 20260510010013 | 54 | 175 | 4.3 | 10.4 | 0.01 | 0.33 | 0.33 | 87 | 1005.4 |
| 20260510005513 | 54 | 191 | 3.5 | 16.5 | 0.02 | 0.33 | 0.33 | 88 | 1005.3 |
| 20260510005024 | 53 | 173 | 5.2 | 16.5 | 0.04 | 0.33 | 0.33 | 88 | 1005.4 |
| 20260510004532 | 53 | 173 | 5.2 | 12.2 | 0.06 | 0.33 | 0.33 | 89 | 1005.3 |
| 20260510004041 | 53 | 165 | 5.2 | 10.4 | 0.12 | 0.33 | 0.33 | 90 | 1005.2 |
| 20260510003556 | 53 | 196 | 2.6 | 11.3 | 0.15 | 0.33 | 0.33 | 90 | 1005.1 |
| 20260510003100 | 53 | 167 | 2.6 | 8.7 | 0.17 | 0.33 | 0.33 | 91 | 1004.9 |
| 20260510002505 | 53 | 250 | 3.5 | 13.0 | 0.19 | 0.33 | 0.33 | 91 | 1004.9 |
| 20260510002019 | 52 | 181 | 4.3 | 13.0 | 0.20 | 0.33 | 0.33 | 91 | 1005.0 |
| 20260510001523 | 52 | 167 | 1.7 | 10.4 | 0.22 | 0.33 | 0.33 | 91 | 1005.0 |
| 20260510001037 | 52 | 202 | 1.7 | 7.0 | 0.25 | 0.33 | 0.33 | 92 | 1005.1 |
| 20260510000540 | 52 | 136 | 2.6 | 13.9 | 0.26 | 0.33 | 0.33 | 92 | 1004.8 |
| 20260510000018 | 52 | 180 | 2.6 | 13.9 | 0.26 | 0.32 | 0.32 | 92 | 1004.9 |
| 20260509235509 | 52 | 175 | 4.3 | 9.6 | 0.26 | 0.31 | 0.31 | 92 | 1005.6 |
| 20260509235012 | 51 | 175 | 2.6 | 8.7 | 0.25 | 0.28 | 0.28 | 92 | 1006.3 |
| 20260509234536 | 51 | 186 | 2.6 | 5.2 | 0.24 | 0.26 | 0.26 | 92 | 1006.4 |
| 20260509234007 | 51 | 219 | 0.9 | 4.3 | 0.20 | 0.21 | 0.21 | 92 | 1006.5 |
| 20260509233518 | 51 | 223 | 1.7 | 6.1 | 0.18 | 0.18 | 0.18 | 91 | 1006.5 |
| 20260509233059 | 51 | 217 | 1.7 | 6.1 | 0.16 | 0.16 | 0.16 | 91 | 1006.5 |
| 20260509232545 | 51 | 205 | 1.7 | 7.8 | 0.14 | 0.14 | 0.14 | 91 | 1006.5 |
| 20260509232054 | 50 | 244 | 1.7 | 8.7 | 0.13 | 0.13 | 0.13 | 91 | 1006.4 |
| 20260509231611 | 50 | 277 | 4.3 | 13.0 | 0.11 | 0.11 | 0.12 | 90 | 1006.4 |
| 20260509231104 | 50 | 236 | 2.6 | 7.8 | 0.09 | 0.09 | 0.09 | 89 | 1006.6 |
| 20260509230549 | 51 | 333 | 2.6 | 14.8 | 0.07 | 0.07 | 0.07 | 88 | 1006.3 |
| 20260509230106 | 51 | 256 | 2.6 | 14.8 | 0.06 | 0.06 | 0.06 | 88 | 1006.2 |
| 20260509225503 | 52 | 251 | 5.2 | 14.8 | 0.05 | 0.05 | 0.05 | 86 | 1005.2 |
| 20260509225001 | 53 | 316 | 5.2 | 14.8 | 0.04 | 0.04 | 0.04 | 83 | 1005.3 |
| 20260509224554 | 55 | 221 | 3.5 | 9.6 | 0.02 | 0.02 | 0.02 | 79 | 1005.4 |
| 20260509224055 | 57 | 301 | 4.3 | 9.6 | 0.01 | 0.01 | 0.01 | 76 | 1005.3 |
| 20260509223553 | 60 | 301 | 2.6 | 6.1 | 0.00 | 0.00 | 0.01 | 72 | 1004.6 |
| 20260509223030 | 63 | 268 | 1.7 | 6.1 | 0.00 | 0.00 | 0.00 | 65 | 1003.9 |
| 20260509222528 | 65 | 231 | 1.7 | 6.1 | 0.00 | 0.00 | 0.00 | 60 | 1003.3 |
| 20260509222027 | 66 | 236 | 0.9 | 6.1 | 0.00 | 0.00 | 0.00 | 57 | 1003.1 |
| 20260509221535 | 66 | 225 | 1.7 | 6.1 | 0.00 | 0.00 | 0.00 | 56 | 1003.0 |
| 20260509221044 | 66 | 202 | 1.7 | 6.1 | 0.00 | 0.00 | 0.00 | 57 | 1002.9 |
| 20260509220546 | 66 | 214 | 0.9 | 8.7 | 0.00 | 0.00 | 0.00 | 55 | 1002.8 |
| 20260509220054 | 66 | 209 | 1.7 | 12.2 | 0.00 | 0.00 | 0.00 | 55 | 1002.7 |
| 20260509215507 | 66 | 202 | 4.3 | 13.0 | 0.00 | 0.00 | 0.00 | 54 | 1002.7 |
| 20260509215039 | 67 | 190 | 3.5 | 12.2 | 0.00 | 0.00 | 0.00 | 53 | 1002.7 |
| 20260509214546 | 67 | 153 | 5.2 | 13.0 | 0.00 | 0.00 | 0.00 | 53 | 1002.6 |
| 20260509214045 | 67 | 231 | 2.6 | 13.9 | 0.00 | 0.00 | 0.00 | 52 | 1002.5 |
| 20260509213531 | 67 | 195 | 4.3 | 13.9 | 0.00 | 0.00 | 0.00 | 52 | 1002.6 |
| 20260509213039 | 67 | 217 | 0.9 | 7.8 | 0.00 | 0.00 | 0.00 | 56 | 1002.5 |
| 20260509212546 | 67 | 205 | 2.6 | 14.8 | 0.00 | 0.00 | 0.00 | 53 | 1002.6 |
| 20260509212057 | 68 | 209 | 5.2 | 14.8 | 0.00 | 0.00 | 0.00 | 52 | 1002.6 |
| 20260509211502 | 68 | 171 | 5.2 | 13.0 | 0.00 | 0.00 | 0.00 | 52 | 1002.5 |
| 20260509211014 | 67 | 150 | 4.3 | 13.0 | 0.00 | 0.00 | 0.00 | 52 | 1002.6 |
| 20260509210515 | 67 | 185 | 4.3 | 13.9 | 0.00 | 0.00 | 0.00 | 53 | 1002.7 |
| 20260509210111 | 67 | 195 | 5.2 | 13.9 | 0.00 | 0.00 | 0.00 | 54 | 1002.8 |
| 20260509205549 | 67 | 172 | 2.6 | 15.6 | 0.00 | 0.00 | 0.00 | 55 | 1002.9 |
| 20260509205054 | 68 | 234 | 3.5 | 15.6 | 0.00 | 0.00 | 0.00 | 54 | 1002.9 |
| 20260509204503 | 68 | 194 | 1.7 | 14.8 | 0.00 | 0.00 | 0.00 | 54 | 1003.0 |
| 20260509204024 | 67 | 200 | 3.5 | 14.8 | 0.00 | 0.00 | 0.00 | 54 | 1003.0 |
| 20260509203601 | 67 | 192 | 2.6 | 10.4 | 0.00 | 0.00 | 0.00 | 55 | 1003.0 |
| 20260509203503 | 67 | 178 | 1.7 | 10.4 | 0.00 | 0.00 | 0.00 | 57 | 1003.0 |
| 20260509203046 | 66 | 175 | 3.5 | 12.2 | 0.00 | 0.00 | 0.00 | 55 | 1003.1 |
| 20260509202552 | 66 | 129 | 1.7 | 11.3 | 0.00 | 0.00 | 0.00 | 55 | 1003.4 |
| 20260509202057 | 67 | 161 | 5.2 | 15.6 | 0.00 | 0.00 | 0.00 | 54 | 1003.4 |
| 20260509201503 | 67 | 166 | 2.6 | 8.7 | 0.00 | 0.00 | 0.00 | 53 | 1003.6 |
| 20260509201046 | 67 | 163 | 1.7 | 8.7 | 0.00 | 0.00 | 0.00 | 54 | 1003.5 |
| 20260509200555 | 67 | 284 | 3.5 | 13.0 | 0.00 | 0.00 | 0.00 | 52 | 1003.5 |
| 20260509200001 | 67 | 223 | 3.5 | 13.0 | 0.00 | 0.00 | 0.00 | 53 | 1003.4 |
| 20260509195514 | 67 | 211 | 3.5 | 12.2 | 0.00 | 0.00 | 0.00 | 53 | 1003.4 |
| 20260509195031 | 67 | 263 | 4.3 | 12.2 | 0.00 | 0.00 | 0.00 | 53 | 1003.5 |
| 20260509194536 | 67 | 140 | 3.5 | 10.4 | 0.00 | 0.00 | 0.00 | 53 | 1003.5 |
| 20260509194052 | 66 | 207 | 3.5 | 13.0 | 0.00 | 0.00 | 0.00 | 56 | 1003.7 |
| 20260509193558 | 66 | 185 | 4.3 | 12.2 | 0.00 | 0.00 | 0.00 | 56 | 1003.9 |
| 20260509193500 | 66 | 188 | 3.5 | 10.4 | 0.00 | 0.00 | 0.00 | 56 | 1003.9 |
| 20260509193019 | 66 | 169 | 2.6 | 10.4 | 0.00 | 0.00 | 0.00 | 59 | 1004.0 |
| 20260509192521 | 65 | 240 | 4.3 | 10.4 | 0.00 | 0.00 | 0.00 | 61 | 1003.9 |
| 20260509192030 | 65 | 225 | 2.6 | 12.2 | 0.00 | 0.00 | 0.00 | 64 | 1004.1 |
| 20260509191544 | 66 | 239 | 5.2 | 12.2 | 0.00 | 0.00 | 0.00 | 60 | 1004.2 |
| 20260509191047 | 67 | 224 | 4.3 | 12.2 | 0.00 | 0.00 | 0.00 | 55 | 1004.4 |
| 20260509190554 | 66 | 176 | 2.6 | 13.0 | 0.00 | 0.00 | 0.00 | 57 | 1004.3 |
| 20260509190049 | 66 | 234 | 3.5 | 13.0 | 0.00 | 0.00 | 0.00 | 60 | 1004.2 |
| 20260509185529 | 66 | 233 | 1.7 | 12.2 | 0.00 | 0.00 | 0.00 | 59 | 1004.3 |
| 20260509185033 | 66 | 126 | 4.3 | 12.2 | 0.00 | 0.00 | 0.00 | 58 | 1004.5 |
| 20260509184545 | 65 | 229 | 4.3 | 10.4 | 0.00 | 0.00 | 0.00 | 59 | 1004.7 |
| 20260509184042 | 65 | 243 | 3.5 | 10.4 | 0.00 | 0.00 | 0.00 | 59 | 1004.8 |
| 20260509183550 | 65 | 197 | 3.5 | 9.6 | 0.00 | 0.00 | 0.00 | 59 | 1004.9 |
| 20260509183041 | 64 | 217 | 3.5 | 11.3 | 0.00 | 0.00 | 0.00 | 60 | 1004.7 |
| 20260509182547 | 64 | 184 | 5.2 | 11.3 | 0.00 | 0.00 | 0.00 | 60 | 1004.5 |
| 20260509182038 | 63 | 175 | 1.7 | 9.6 | 0.00 | 0.00 | 0.00 | 67 | 1004.7 |
| 20260509181543 | 62 | 199 | 2.6 | 6.1 | 0.00 | 0.00 | 0.00 | 68 | 1004.9 |
| 20260509181055 | 61 | 221 | 1.7 | 7.8 | 0.00 | 0.00 | 0.00 | 72 | 1004.8 |
| 20260509180601 | 62 | 255 | 3.5 | 7.8 | 0.00 | 0.00 | 0.00 | 72 | 1004.9 |
| 20260509180054 | 62 | 254 | 1.7 | 12.2 | 0.00 | 0.00 | 0.00 | 71 | 1005.1 |
| 20260509175558 | 61 | 288 | 1.7 | 12.2 | 0.00 | 0.00 | 0.00 | 71 | 1005.0 |
| 20260509175502 | 61 | 287 | 2.6 | 12.2 | 0.00 | 0.00 | 0.00 | 71 | 1005.1 |
| 20260509175046 | 61 | 237 | 2.6 | 7.8 | 0.00 | 0.00 | 0.00 | 71 | 1005.0 |
| 20260509174554 | 61 | 245 | 2.6 | 5.2 | 0.00 | 0.00 | 0.00 | 72 | 1005.2 |
| 20260509174005 | 60 | 242 | 1.7 | 4.3 | 0.00 | 0.00 | 0.00 | 73 | 1005.1 |
| 20260509173522 | 60 | 243 | 2.6 | 4.3 | 0.00 | 0.00 | 0.00 | 73 | 1005.1 |
| 20260509173103 | 60 | 198 | 0.9 | 3.5 | 0.00 | 0.00 | 0.00 | 74 | 1005.1 |
| 20260509172510 | 60 | 243 | 1.7 | 7.8 | 0.00 | 0.00 | 0.00 | 73 | 1005.4 |
| 20260509172017 | 60 | 269 | 3.5 | 7.8 | 0.00 | 0.00 | 0.00 | 73 | 1005.5 |
| 20260509171529 | 61 | 254 | 1.7 | 6.1 | 0.00 | 0.00 | 0.00 | 73 | 1005.7 |
| 20260509171032 | 61 | 237 | 0.9 | 6.1 | 0.00 | 0.00 | 0.00 | 71 | 1005.8 |
| 20260509170543 | 62 | 232 | 1.7 | 10.4 | 0.00 | 0.00 | 0.00 | 69 | 1005.7 |
| 20260509170058 | 62 | 254 | 2.6 | 10.4 | 0.00 | 0.00 | 0.00 | 69 | 1005.8 |
| 20260509165555 | 62 | 271 | 3.5 | 9.6 | 0.00 | 0.00 | 0.00 | 68 | 1005.7 |
| 20260509165034 | 61 | 205 | 0.9 | 8.7 | 0.00 | 0.00 | 0.00 | 72 | 1005.8 |
| 20260509164543 | 61 | 202 | 1.7 | 6.1 | 0.00 | 0.00 | 0.00 | 72 | 1005.8 |
| 20260509164049 | 60 | 257 | 2.6 | 7.0 | 0.00 | 0.00 | 0.00 | 72 | 1005.9 |
| 20260509163556 | 60 | 215 | 0.9 | 8.7 | 0.00 | 0.00 | 0.00 | 73 | 1006.1 |
| 20260509163002 | 60 | 223 | 3.5 | 8.7 | 0.00 | 0.00 | 0.00 | 72 | 1006.2 |
| 20260509162515 | 60 | 247 | 1.7 | 8.7 | 0.00 | 0.00 | 0.00 | 73 | 1006.2 |
| 20260509162037 | 60 | 161 | 2.6 | 8.7 | 0.00 | 0.00 | 0.00 | 74 | 1006.3 |
| 20260509161552 | 59 | 238 | 2.6 | 7.8 | 0.00 | 0.00 | 0.00 | 74 | 1006.3 |
| 20260509161056 | 59 | 264 | 1.7 | 7.8 | 0.00 | 0.00 | 0.00 | 74 | 1006.3 |
| 20260509160600 | 59 | 185 | 3.5 | 9.6 | 0.00 | 0.00 | 0.00 | 74 | 1006.3 |
| 20260509160502 | 59 | 209 | 4.3 | 9.6 | 0.00 | 0.00 | 0.00 | 73 | 1006.3 |
| 20260509160021 | 59 | 182 | 2.6 | 9.6 | 0.00 | 0.00 | 0.00 | 73 | 1006.3 |
| 20260509155557 | 59 | 185 | 0.9 | 6.1 | 0.00 | 0.00 | 0.00 | 74 | 1006.3 |
| 20260509155103 | 59 | 222 | 0.9 | 6.1 | 0.00 | 0.00 | 0.00 | 74 | 1006.3 |
| 20260509154605 | 60 | 218 | 2.6 | 6.1 | 0.00 | 0.00 | 0.00 | 72 | 1006.3 |
| 20260509154100 | 60 | 179 | 1.7 | 7.8 | 0.00 | 0.00 | 0.00 | 74 | 1006.3 |
| 20260509153506 | 60 | 190 | 1.7 | 7.8 | 0.00 | 0.00 | 0.00 | 75 | 1006.3 |
| 20260509153016 | 59 | 128 | 1.7 | 7.0 | 0.00 | 0.00 | 0.00 | 76 | 1006.3 |
| 20260509152522 | 58 | 177 | 1.7 | 8.7 | 0.00 | 0.00 | 0.00 | 76 | 1006.2 |
| 20260509152006 | 58 | 217 | 3.5 | 8.7 | 0.00 | 0.00 | 0.00 | 77 | 1006.3 |
| 20260509151521 | 58 | 201 | 0.9 | 10.4 | 0.00 | 0.00 | 0.00 | 78 | 1006.3 |
| 20260509151002 | 58 | 182 | 3.5 | 12.2 | 0.00 | 0.00 | 0.00 | 76 | 1006.4 |
| 20260509150520 | 58 | 181 | 4.3 | 8.7 | 0.00 | 0.00 | 0.00 | 75 | 1006.5 |
| 20260509150026 | 59 | 156 | 2.6 | 8.7 | 0.00 | 0.00 | 0.00 | 77 | 1006.4 |
| 20260509145509 | 58 | 146 | 3.5 | 10.4 | 0.00 | 0.00 | 0.00 | 78 | 1006.5 |
| 20260509145006 | 58 | 204 | 3.5 | 8.7 | 0.00 | 0.00 | 0.00 | 77 | 1006.5 |
| 20260509144518 | 58 | 212 | 2.6 | 8.7 | 0.00 | 0.00 | 0.00 | 79 | 1006.5 |
| 20260509144031 | 58 | 211 | 1.7 | 6.1 | 0.00 | 0.00 | 0.00 | 78 | 1006.5 |
| 20260509143534 | 57 | 186 | 0.9 | 9.6 | 0.00 | 0.00 | 0.00 | 80 | 1006.4 |
| 20260509143048 | 57 | 187 | 2.6 | 9.6 | 0.00 | 0.00 | 0.00 | 80 | 1006.3 |
| 20260509142545 | 57 | 236 | 3.5 | 13.0 | 0.00 | 0.00 | 0.00 | 79 | 1006.4 |
| 20260509142054 | 57 | 252 | 4.3 | 7.8 | 0.00 | 0.00 | 0.00 | 78 | 1006.5 |
| 20260509141510 | 57 | 148 | 1.7 | 7.8 | 0.00 | 0.00 | 0.00 | 80 | 1006.4 |
| 20260509141003 | 56 | 170 | 2.6 | 7.8 | 0.00 | 0.00 | 0.00 | 79 | 1006.4 |
| 20260509140550 | 56 | 196 | 1.7 | 6.1 | 0.00 | 0.00 | 0.00 | 80 | 1006.4 |
| 20260509140044 | 56 | 204 | 2.6 | 5.2 | 0.00 | 0.00 | 0.00 | 80 | 1006.4 |
| 20260509135554 | 56 | 178 | 0.9 | 6.1 | 0.00 | 0.00 | 0.00 | 81 | 1006.5 |
| 20260509135059 | 55 | 186 | 0.0 | 13.0 | 0.00 | 0.00 | 0.00 | 81 | 1006.4 |
| 20260509134508 | 56 | 189 | 4.3 | 10.4 | 0.00 | 0.00 | 0.00 | 80 | 1006.3 |
| 20260509134007 | 56 | 213 | 4.3 | 10.4 | 0.00 | 0.00 | 0.00 | 80 | 1006.4 |
| 20260509133521 | 56 | 173 | 2.6 | 7.8 | 0.00 | 0.00 | 0.00 | 82 | 1006.5 |
| 20260509133028 | 55 | 164 | 3.5 | 7.8 | 0.00 | 0.00 | 0.00 | 81 | 1006.5 |
| 20260509132532 | 55 | 126 | 2.6 | 8.7 | 0.00 | 0.00 | 0.00 | 82 | 1006.5 |
| 20260509132011 | 55 | 179 | 1.7 | 8.7 | 0.00 | 0.00 | 0.00 | 82 | 1006.6 |
| 20260509131520 | 55 | 182 | 2.6 | 5.2 | 0.00 | 0.00 | 0.00 | 82 | 1006.7 |
| 20260509131026 | 55 | 190 | 2.6 | 7.8 | 0.00 | 0.00 | 0.00 | 83 | 1006.7 |
| 20260509130536 | 54 | 174 | 2.6 | 7.8 | 0.00 | 0.00 | 0.00 | 83 | 1006.6 |
| 20260509130043 | 54 | 180 | 1.7 | 8.7 | 0.00 | 0.00 | 0.00 | 84 | 1006.7 |
| 20260509125546 | 54 | 178 | 3.5 | 8.7 | 0.00 | 0.00 | 0.00 | 84 | 1006.8 |
| 20260509125023 | 54 | 158 | 3.5 | 8.7 | 0.00 | 0.00 | 0.00 | 84 | 1006.8 |
| 20260509124538 | 54 | 185 | 3.5 | 7.0 | 0.00 | 0.00 | 0.00 | 85 | 1007.0 |
| 20260509124036 | 54 | 195 | 3.5 | 8.7 | 0.00 | 0.00 | 0.00 | 85 | 1007.0 |
| 20260509123542 | 54 | 239 | 4.3 | 8.7 | 0.00 | 0.00 | 0.00 | 85 | 1007.0 |
| 20260509123027 | 53 | 212 | 0.9 | 8.7 | 0.00 | 0.00 | 0.00 | 85 | 1007.0 |
| 20260509122531 | 53 | 141 | 2.6 | 7.8 | 0.00 | 0.00 | 0.00 | 85 | 1007.1 |
| 20260509122042 | 53 | 168 | 1.7 | 7.8 | 0.00 | 0.00 | 0.00 | 85 | 1007.1 |
| 20260509121556 | 53 | 190 | 2.6 | 7.8 | 0.00 | 0.00 | 0.00 | 85 | 1007.2 |
| 20260509121101 | 53 | 196 | 2.6 | 6.1 | 0.00 | 0.00 | 0.00 | 85 | 1007.3 |
| 20260509120508 | 53 | 167 | 2.6 | 8.7 | 0.00 | 0.00 | 0.00 | 86 | 1007.3 |
| 20260509120021 | 53 | 191 | 2.6 | 8.7 | 0.00 | 0.10 | 0.00 | 85 | 1007.3 |
| 20260509115558 | 53 | 193 | 2.6 | 6.1 | 0.00 | 0.10 | 0.00 | 85 | 1007.3 |
| 20260509115001 | 53 | 137 | 2.6 | 6.1 | 0.00 | 0.10 | 0.00 | 86 | 1007.2 |
| 20260509114540 | 53 | 150 | 1.7 | 7.0 | 0.00 | 0.10 | 0.00 | 86 | 1007.3 |
| 20260509114030 | 53 | 209 | 1.7 | 7.0 | 0.00 | 0.10 | 0.00 | 86 | 1007.2 |
| 20260509113536 | 53 | 158 | 1.7 | 7.0 | 0.00 | 0.10 | 0.00 | 86 | 1007.2 |
| 20260509113022 | 53 | 128 | 1.7 | 7.0 | 0.00 | 0.10 | 0.00 | 86 | 1007.2 |
| 20260509112530 | 52 | 141 | 2.6 | 7.0 | 0.00 | 0.10 | 0.00 | 87 | 1007.1 |
| 20260509112041 | 52 | 123 | 1.7 | 9.6 | 0.00 | 0.10 | 0.00 | 87 | 1007.1 |
| 20260509111540 | 52 | 179 | 0.9 | 9.6 | 0.00 | 0.10 | 0.00 | 87 | 1007.1 |
| 20260509111014 | 52 | 150 | 1.7 | 7.0 | 0.00 | 0.10 | 0.00 | 87 | 1007.1 |
| 20260509110530 | 52 | 190 | 0.9 | 5.2 | 0.00 | 0.10 | 0.00 | 87 | 1007.1 |
| 20260509110024 | 52 | 115 | 1.7 | 5.2 | 0.00 | 0.12 | 0.00 | 88 | 1007.1 |
| 20260509105603 | 52 | 177 | 0.9 | 4.3 | 0.00 | 0.12 | 0.00 | 88 | 1007.1 |
| 20260509105502 | 52 | 177 | 0.9 | 4.3 | 0.00 | 0.12 | 0.00 | 88 | 1007.1 |
| 20260509105010 | 52 | 140 | 1.7 | 3.5 | 0.00 | 0.12 | 0.00 | 88 | 1007.1 |
| 20260509104522 | 52 | 141 | 1.7 | 5.2 | 0.00 | 0.12 | 0.00 | 88 | 1007.1 |
| 20260509104025 | 52 | 138 | 1.7 | 5.2 | 0.00 | 0.12 | 0.00 | 88 | 1007.1 |
| 20260509103509 | 52 | 184 | 1.7 | 6.1 | 0.00 | 0.12 | 0.00 | 87 | 1007.3 |
| 20260509103021 | 52 | 195 | 0.0 | 6.1 | 0.00 | 0.12 | 0.00 | 87 | 1007.2 |
| 20260509102559 | 52 | 202 | 1.7 | 5.2 | 0.00 | 0.12 | 0.00 | 87 | 1007.2 |
| 20260509102501 | 52 | 172 | 0.9 | 2.6 | 0.00 | 0.12 | 0.00 | 87 | 1007.2 |
| 20260509102104 | 52 | 180 | 0.9 | 5.2 | 0.00 | 0.12 | 0.00 | 87 | 1007.2 |
| 20260509101550 | 52 | 185 | 0.9 | 5.2 | 0.00 | 0.12 | 0.00 | 87 | 1007.3 |
| 20260509101058 | 52 | 186 | 0.0 | 5.2 | 0.00 | 0.12 | 0.00 | 87 | 1007.3 |
| 20260509100509 | 52 | 182 | 1.7 | 5.2 | 0.00 | 0.12 | 0.00 | 86 | 1007.3 |
| 20260509100026 | 52 | 230 | 0.9 | 5.2 | 0.00 | 0.19 | 0.00 | 86 | 1007.3 |
| 20260509095546 | 52 | 155 | 1.7 | 7.0 | 0.00 | 0.19 | 0.00 | 87 | 1007.2 |
| 20260509095040 | 52 | 184 | 1.7 | 7.0 | 0.00 | 0.19 | 0.00 | 86 | 1007.3 |
| 20260509094531 | 52 | 173 | 1.7 | 5.2 | 0.00 | 0.19 | 0.00 | 86 | 1007.3 |
| 20260509094033 | 52 | 177 | 1.7 | 5.2 | 0.00 | 0.19 | 0.00 | 86 | 1007.3 |
| 20260509093522 | 52 | 165 | 1.7 | 5.2 | 0.00 | 0.19 | 0.00 | 86 | 1007.3 |
| 20260509093102 | 52 | 186 | 1.7 | 4.3 | 0.00 | 0.19 | 0.00 | 86 | 1007.3 |
| 20260509092511 | 52 | 184 | 1.7 | 4.3 | 0.00 | 0.19 | 0.00 | 86 | 1007.3 |
| 20260509092003 | 52 | 187 | 1.7 | 5.2 | 0.00 | 0.19 | 0.00 | 86 | 1007.4 |
| 20260509091513 | 52 | 183 | 0.9 | 5.2 | 0.00 | 0.19 | 0.00 | 86 | 1007.4 |
| 20260509091042 | 52 | 199 | 0.9 | 2.6 | 0.00 | 0.19 | 0.00 | 86 | 1007.3 |
| 20260509090522 | 52 | 204 | 0.9 | 3.5 | 0.00 | 0.19 | 0.00 | 86 | 1007.4 |
| 20260509090047 | 52 | 215 | 0.9 | 3.5 | 0.00 | 0.19 | 0.00 | 86 | 1007.5 |
| 20260509085528 | 52 | 208 | 0.0 | 3.5 | 0.00 | 0.19 | 0.00 | 86 | 1007.5 |
| 20260509085033 | 52 | 207 | 0.9 | 3.5 | 0.00 | 0.19 | 0.00 | 86 | 1007.5 |
| 20260509084546 | 52 | 209 | 0.9 | 2.6 | 0.00 | 0.19 | 0.00 | 86 | 1007.5 |
| 20260509084050 | 52 | 199 | 0.9 | 5.2 | 0.00 | 0.19 | 0.00 | 85 | 1007.6 |
| 20260509083557 | 52 | 194 | 0.0 | 5.2 | 0.00 | 0.19 | 0.00 | 86 | 1007.5 |
| 20260509083023 | 52 | 180 | 0.0 | 4.3 | 0.00 | 0.19 | 0.00 | 86 | 1007.5 |
| 20260509082527 | 52 | 182 | 0.9 | 6.1 | 0.00 | 0.19 | 0.00 | 86 | 1007.5 |
| 20260509082029 | 52 | 175 | 1.7 | 6.1 | 0.00 | 0.19 | 0.00 | 86 | 1007.5 |
| 20260509081528 | 52 | 194 | 0.9 | 4.3 | 0.00 | 0.19 | 0.00 | 86 | 1007.5 |
| 20260509081058 | 52 | 188 | 0.9 | 4.3 | 0.00 | 0.19 | 0.00 | 86 | 1007.5 |
| 20260509080515 | 52 | 159 | 0.9 | 2.6 | 0.00 | 0.19 | 0.00 | 85 | 1007.5 |
| 20260509080015 | 52 | 157 | 0.0 | 4.3 | 0.00 | 0.19 | 0.00 | 85 | 1007.6 |
| 20260509075529 | 52 | 218 | 0.9 | 4.3 | 0.00 | 0.19 | 0.00 | 85 | 1007.6 |
| 20260509075037 | 52 | 181 | 1.7 | 4.3 | 0.00 | 0.19 | 0.00 | 85 | 1007.7 |
| 20260509074541 | 52 | 192 | 0.0 | 3.5 | 0.00 | 0.19 | 0.00 | 85 | 1007.7 |
| 20260509074006 | 52 | 179 | 0.0 | 4.3 | 0.00 | 0.19 | 0.00 | 85 | 1007.8 |
| 20260509073521 | 52 | 179 | 1.7 | 6.1 | 0.00 | 0.19 | 0.00 | 85 | 1007.8 |
| 20260509073115 | 52 | 188 | 1.7 | 7.8 | 0.00 | 0.19 | 0.00 | 85 | 1007.8 |
| 20260509072514 | 52 | 172 | 2.6 | 4.3 | 0.00 | 0.19 | 0.00 | 85 | 1007.8 |
| 20260509072017 | 52 | 202 | 0.9 | 3.5 | 0.00 | 0.19 | 0.00 | 85 | 1007.9 |
| 20260509071522 | 52 | 210 | 0.9 | 3.5 | 0.00 | 0.19 | 0.00 | 85 | 1008.0 |
| 20260509071028 | 52 | 210 | 0.9 | 3.5 | 0.00 | 0.19 | 0.00 | 85 | 1008.0 |
| 20260509070509 | 52 | 139 | 0.9 | 6.1 | 0.00 | 0.19 | 0.00 | 85 | 1007.9 |
| 20260509065515 | 52 | 148 | 1.7 | 4.3 | 0.00 | 0.19 | 0.00 | 84 | 1007.9 |
| 20260509065005 | 52 | 189 | 1.7 | 4.3 | 0.00 | 0.19 | 0.00 | 84 | 1008.0 |
| 20260509064513 | 52 | 135 | 1.7 | 5.2 | 0.00 | 0.19 | 0.00 | 84 | 1008.1 |
| 20260509064031 | 52 | 148 | 1.7 | 5.2 | 0.00 | 0.19 | 0.00 | 84 | 1008.2 |
| 20260509063534 | 52 | 178 | 1.7 | 5.2 | 0.00 | 0.19 | 0.00 | 84 | 1008.2 |
| 20260509063048 | 52 | 160 | 1.7 | 5.2 | 0.00 | 0.19 | 0.00 | 83 | 1008.3 |
| 20260509062545 | 52 | 180 | 0.9 | 6.1 | 0.00 | 0.19 | 0.00 | 83 | 1008.3 |
| 20260509062026 | 52 | 186 | 0.9 | 4.3 | 0.00 | 0.19 | 0.00 | 83 | 1008.3 |
| 20260509061539 | 52 | 186 | 1.7 | 5.2 | 0.00 | 0.19 | 0.00 | 83 | 1008.4 |
| 20260509061044 | 52 | 190 | 1.7 | 5.2 | 0.00 | 0.19 | 0.00 | 83 | 1008.5 |
| 20260509060551 | 52 | 174 | 0.9 | 5.2 | 0.00 | 0.19 | 0.00 | 83 | 1008.5 |
| 20260509060002 | 52 | 140 | 1.7 | 7.0 | 0.00 | 0.19 | 0.00 | 83 | 1008.7 |
| 20260509055547 | 52 | 186 | 2.6 | 7.0 | 0.00 | 0.19 | 0.00 | 83 | 1008.8 |
| 20260509055038 | 52 | 202 | 2.6 | 8.7 | 0.00 | 0.19 | 0.00 | 83 | 1008.8 |
| 20260509054530 | 52 | 180 | 3.5 | 8.7 | 0.00 | 0.19 | 0.00 | 83 | 1009.0 |
| 20260509054020 | 52 | 189 | 1.7 | 7.0 | 0.00 | 0.19 | 0.00 | 83 | 1009.0 |
| 20260509053523 | 52 | 188 | 0.0 | 7.8 | 0.00 | 0.19 | 0.00 | 83 | 1009.0 |
| 20260509053033 | 52 | 165 | 1.7 | 7.8 | 0.00 | 0.19 | 0.00 | 83 | 1009.0 |
| 20260509052513 | 52 | 175 | 1.7 | 6.1 | 0.00 | 0.19 | 0.00 | 83 | 1009.0 |
| 20260509052024 | 52 | 175 | 2.6 | 7.8 | 0.00 | 0.19 | 0.00 | 83 | 1009.0 |
| 20260509051530 | 52 | 150 | 2.6 | 7.8 | 0.00 | 0.19 | 0.00 | 83 | 1009.1 |
| 20260509051039 | 52 | 202 | 1.7 | 6.1 | 0.00 | 0.19 | 0.00 | 82 | 1009.2 |
| 20260509050545 | 52 | 207 | 0.9 | 7.8 | 0.00 | 0.19 | 0.00 | 83 | 1009.3 |
| 20260509050057 | 52 | 183 | 2.6 | 7.8 | 0.00 | 0.19 | 0.00 | 83 | 1009.4 |
| 20260509045531 | 52 | 184 | 1.7 | 7.0 | 0.00 | 0.19 | 0.00 | 82 | 1009.4 |
| 20260509045044 | 52 | 191 | 2.6 | 7.0 | 0.00 | 0.19 | 0.00 | 82 | 1009.3 |
| 20260509044550 | 52 | 190 | 1.7 | 5.2 | 0.00 | 0.19 | 0.00 | 82 | 1009.3 |
| 20260509044057 | 52 | 184 | 0.0 | 2.6 | 0.00 | 0.19 | 0.00 | 81 | 1009.4 |
| 20260509043542 | 52 | 184 | 0.0 | 2.6 | 0.00 | 0.19 | 0.00 | 80 | 1009.5 |
| 20260509043050 | 52 | 184 | 0.0 | 4.3 | 0.00 | 0.19 | 0.00 | 80 | 1009.6 |
| 20260509042558 | 52 | 184 | 1.7 | 5.2 | 0.00 | 0.19 | 0.00 | 80 | 1009.7 |
| 20260509042503 | 52 | 186 | 0.0 | 5.2 | 0.00 | 0.19 | 0.00 | 80 | 1009.7 |
| 20260509042002 | 52 | 186 | 1.7 | 5.2 | 0.00 | 0.19 | 0.00 | 79 | 1009.8 |
| 20260509041519 | 52 | 193 | 0.9 | 5.2 | 0.00 | 0.19 | 0.00 | 79 | 1009.8 |
| 20260509041053 | 52 | 180 | 0.9 | 5.2 | 0.00 | 0.19 | 0.00 | 79 | 1009.8 |
| 20260509040603 | 52 | 182 | 2.6 | 5.2 | 0.00 | 0.19 | 0.00 | 78 | 1009.9 |
| 20260509040502 | 52 | 183 | 1.7 | 5.2 | 0.00 | 0.19 | 0.00 | 78 | 1009.9 |
| 20260509040125 | 52 | 188 | 0.9 | 6.1 | 0.00 | 0.19 | 0.19 | 78 | 1009.9 |
| 20260509035518 | 52 | 182 | 1.7 | 6.1 | 0.00 | 0.19 | 0.19 | 77 | 1009.8 |
| 20260509035057 | 52 | 153 | 1.7 | 4.3 | 0.00 | 0.19 | 0.19 | 76 | 1009.9 |
| 20260509034509 | 52 | 188 | 1.7 | 4.3 | 0.00 | 0.19 | 0.19 | 75 | 1009.9 |
| 20260509034017 | 52 | 190 | 0.9 | 3.5 | 0.00 | 0.19 | 0.19 | 74 | 1009.9 |
| 20260509033559 | 52 | 180 | 0.9 | 2.6 | 0.00 | 0.19 | 0.19 | 73 | 1009.9 |
| 20260509033507 | 52 | 180 | 0.9 | 2.6 | 0.00 | 0.19 | 0.19 | 73 | 1010.0 |
| 20260509033025 | 52 | 206 | 0.9 | 2.6 | 0.00 | 0.19 | 0.19 | 73 | 1010.0 |
| 20260509032526 | 52 | 223 | 0.9 | 1.7 | 0.00 | 0.19 | 0.19 | 71 | 1010.0 |
| 20260509032003 | 52 | 223 | 0.9 | 1.7 | 0.00 | 0.19 | 0.19 | 71 | 1010.1 |
| 20260509031518 | 52 | 223 | 0.9 | 1.7 | 0.00 | 0.19 | 0.19 | 70 | 1010.2 |